Regional Weather Roundup
Issued by NWS

Home | Current Version | Previous Version | Graphics & Text | Print | Product List | Glossary On
Versions: 1 2 3 4 5 6 7 8 9 10 11 12 13 14 15 16 17 18 19 20 21 22 23 24 25 26 27 28 29 30 31 32 33 34 35 36 37 38 39 40 41 42 43 44 45 46 47 48 49 50
000
ASUS45 KTFX 301810
RWRMT
MONTANA REGIONAL WEATHER ROUNDUP
NATIONAL WEATHER SERVICE GREAT FALLS MT
1200 PM MDT MON MAY 30 2016

NOTE: "FAIR" INDICATES FEW OR NO CLOUDS BELOW 12000 FEET WITH NO
SIGNIFICANT WEATHER AND/OR OBSTRUCTIONS TO VISIBILITY.

MTZ001>007-043-301900-
WEST OF THE DIVIDE

CITY           SKY/WX    TMP DP  RH WIND       PRES   REMARKS
KALISPELL      PTSUNNY   58  39  49 SW5       30.16S
MISSOULA       SUNNY     63  33  32 NW13G22   30.16R
BUTTE          SUNNY     57  22  25 NW13G23   30.14S
MULLAN PASS    SUNNY     47  30  51 VRB3      30.22S
ANACONDA         N/A     57  25  28 SW8G20    30.13S
DEER LODGE       N/A     57  30  35 NW18G26   30.14S
EUREKA           N/A     55  39  54 N6        30.20S
HAMILTON         N/A     63  28  27 CALM      30.15F
LIBBY            N/A     59  36  41 N7        30.18S
$$

MTZ008-052>055-301900-
SOUTHWEST MONTANA

CITY           SKY/WX    TMP DP  RH WIND       PRES   REMARKS
BOZEMAN        CLOUDY    62  37  39 W12G24    30.08R
DILLON         PTSUNNY   58  27  30 VRB3      30.11F
W YELLOWSTONE  MOSUNNY   57  32  38 W14G22    30.13S
ENNIS          PTSUNNY   57  32  38 NW9       30.17S
$$

MTZ009-010-012-014-046-048-049-054-301900-
EAST SLOPES AND CENTRAL MONTANA

CITY           SKY/WX    TMP DP  RH WIND       PRES   REMARKS
CUT BANK       CLOUDY    50  37  61 NW25G31   30.13R
GREAT FALLS    PTSUNNY   54  37  52 NW17G26   30.13R
MALMSTROM AFB  PTSUNNY   53  37  56 NW12      30.12S
HELENA         PTSUNNY   63  28  26 NW18G28   30.10R
CHOTEAU          N/A     55  36  47 NW23G30   30.15R
$$

MTZ011-013-016-021-045-047-050-051-301900-
NORTH CENTRAL MONTANA

CITY           SKY/WX    TMP DP  RH WIND       PRES   REMARKS
HAVRE          CLOUDY    49  42  77 W22G33    30.05R
LEWISTOWN      CLOUDY    48  40  73 NW10G20   30.11S
N BAR RANCH    LGT RAIN  45  41  87 NW23G31   30.11R
CHINOOK          N/A     54  43  66 W21       30.01S
$$

MTZ017>020-022>027-061-062-301900-
NORTHEAST MONTANA

CITY           SKY/WX    TMP DP  RH WIND       PRES   REMARKS
GLASGOW        CLOUDY    62  46  55 NW22      29.94R
JORDAN           N/A     56  51  84 NW20      29.97R
SIDNEY         CLOUDY    59  54  82 CALM      29.93F
WOLF POINT     LGT RAIN  59  54  83 NW6       29.94S
POPLAR           N/A     61  52  72 NW6       29.94S
$$

MTZ028>42-056>058-301900-
SOUTHCENTRAL AND SOUTHEAST MONTANA

CITY           SKY/WX    TMP DP  RH WIND       PRES   REMARKS
BAKER          LGT RAIN  57  51  80 N8        29.95S
BILLINGS       PTSUNNY   65  36  34 NW14G23   30.00S
LIVINGSTON     CLOUDY    55  39  54 N15G26    30.06R
MILES CITY     CLOUDY    64  50  60 NW7       29.95S
FORSYTH          N/A     63  52  67 CALM      29.96S
$$

REGIONAL REPORTS...DAKOTAS

CITY           SKY/WX    TMP DP  RH WIND       PRES   REMARKS
WILLISTON      LGT RAIN  57  52  83 S3        29.94F
MINOT          CLOUDY    75  50  41 CALM      29.88R
DICKINSON      RAIN      53  51  93 N9        29.91F
BEACH          LGT RAIN  55  55 100 NE9       29.96F
CROSBY           N/A     64  48  55 W9        29.93F
WATFORD CITY   PTSUNNY   55  55 100 NE6       29.94F
BISMARCK       MOSUNNY   76  58  53 SE13      29.85F
GRAND FORKS    MOSUNNY   80  50  34 SE6       29.88F
FARGO          SUNNY     83  48  29 VRB7      29.88F
BUFFALO SD       N/A     60  53  77 N15       29.84R
RAPID CITY     CLOUDY    78  54  43 E10       29.83F
$$

REGIONAL REPORTS...WYOMING/IDAHO/WASHINGTON

CITY           SKY/WX    TMP DP  RH WIND       PRES   REMARKS
GILLETTE       CLOUDY    61  47  59 N10       30.00S
SHERIDAN       CLOUDY    61  45  55 CALM      30.02S
BUFFALO WY     CLOUDY    59  44  57 N7        30.04F
CODY           CLOUDY    57  43  58 N15       30.04R
YELLOWSTONE LA   N/A     51  33  50 VRB7      30.17F
IDAHO FALLS    MOSUNNY   66  42  41 SW14G21   30.11S
SALMON         MOSUNNY   63  34  34 N9        30.12S
BOISE          SUNNY     66  37  34 NW12G21   30.16F
SPOKANE        PTSUNNY   59  33  37 CALM      30.22F
$$

REGIONAL REPORTS...ALBERTA

CITY           SKY/WX    TMP DP  RH WIND       PRES   REMARKS
EDMONTON       LGT RAIN  50  43  76 NW14G20   30.11R
CALGARY        MOSUNNY   54  36  50 N26G40    30.14R
LETHBRIDGE     PTSUNNY   52  39  62 NW30G36   30.11S
MEDICINE HAT   LGT RAIN  46  43  87 W24G37    29.99R FOG
WATERTON GATE    N/A     54  36  50 NE5         N/A
CARDSTON         N/A     48  39  71 W7          N/A
MILK RIVER       N/A     46  43  87 NW23G29     N/A
ONEFOUR          N/A     45  43  93 NW29G37     N/A
$$

REGIONAL REPORTS...SASKATCHEWAN

CITY           SKY/WX    TMP DP  RH WIND       PRES   REMARKS
SWIFT CURRENT  CLOUDY    59  48  67 W16       29.91R
REGINA         LGT RAIN  66  50  55 S7        29.87S
SASKATOON      PTSUNNY   61  48  63 E15G21    29.96S
CYPRESS HILLS    N/A     41  37  87 W9          N/A
VAL MARIE        N/A     52  48  87 W18         N/A
ROCKGLEN         N/A     54  50  87 NW2         N/A
$$



USA.gov is the U.S. government's official web portal to all federal, state and local government web resources and services.